Regional Weather Roundup
Issued by NWS

Home | Current Version | Previous Version | Graphics & Text | Print | Product List | Glossary On
Versions: 1 2 3 4 5 6 7 8 9 10 11 12 13 14 15 16 17 18 19 20 21 22 23 24 25 26 27 28 29 30 31 32 33 34 35 36 37 38 39 40 41 42 43 44 45 46 47 48 49 50
000
ASUS45 KABQ 190001
RWRNM
NEW MEXICO REGIONAL WEATHER ROUNDUP
NATIONAL WEATHER SERVICE ALBUQUERQUE NM
500 PM MST WED JAN 18 2017

NOTE: "FAIR" MEANS FEW OR NO CLOUDS BELOW 12,000 FEET AGL WITH NO
       SIGNIFICANT WEATHER OR OBSTRUCTIONS TO VISION.

      THIS PRODUCT IS RELEASED AS TWO VERSIONS.  ONE VERSION NEAR
      THE TOP OF THE HOUR CONTAINING PRELIMINARY DATA FROM ALBUQUERQUE
      AND OTHER STATIONS.  A FINAL VERSION WITH ADDITIONAL DATA IS
      ISSUED ABOUT 10 MINUTES AFTER THE HOUR.

NMZ501-503-504-510>518-190100-
NORTHWEST PLATEAU/NORTHCENTRAL MOUNTAINS

CITY           SKY/WX    TMP DP  RH WIND       PRES   REMARKS
FARMINGTON     FAIR      40  29  64 NW6       29.99F
6HR MIN TEMP:  31; 6HR MAX TEMP:  42;

LOS ALAMOS     CLOUDY    36  29  78 CALM      29.99S
SANTA FE       CLOUDY    40  27  59 N14       29.97R WCI  32
6HR MIN TEMP:  37; 6HR MAX TEMP:  43;

TAOS           CLOUDY    34  21  60 CALM      29.97F
ANGEL FIRE     FAIR      28  23  81 W12G21    29.95S WCI  18

$$
NMZ402-403-502-505>509-190100-
WESTCENTRAL MOUNTAINS/SOUTHWEST MOUNTAINS

CITY           SKY/WX    TMP DP  RH WIND       PRES   REMARKS
GALLUP         MOCLDY    40  29  64 W9        30.04R WCI  34
6HR MIN TEMP:  34; 6HR MAX TEMP:  41;

GRANTS         MOCLDY    40  26  57 NW9G18    30.04S WCI  34
SILVER CITY    CLOUDY    46  33  61 NW14      30.06S

$$
NMZ407-409-411-412-190100-
SOUTHERN DESERTS

CITY           SKY/WX    TMP DP  RH WIND       PRES   REMARKS
DEMING         MOCLDY    54  34  46 W18       30.03S
6HR MIN TEMP:  48; 6HR MAX TEMP:  56;

LAS CRUCES     MOCLDY    53  34  48 W13G18    30.03F
HOLLOMAN AFB   FAIR      50  40  68 S3        30.04F
ALAMOGORDO     FAIR      48  39  71 S5        30.03F
T OR C         CLOUDY    49  40  71 S6        29.99F
6HR MIN TEMP:  39; 6HR MAX TEMP:  50;


$$
NMZ519>523-190100-
CENTRAL VALLEYS/CENTRAL HIGHLANDS

CITY           SKY/WX    TMP DP  RH WIND       PRES   REMARKS
ALBUQUERQUE    MOCLDY    46  35  65 N5        29.99S
6HR MIN TEMP:  41; 6HR MAX TEMP:  47; 6HR PCP: TRACE;

DOUBLE EAGLE   MOCLDY    45  32  61 W6        30.00S
MORIARTY ARPT  MOCLDY    40  29  66 W9        29.98S WCI  34
6HR MIN TEMP:  39; 6HR MAX TEMP:  46;

CLINES CORNERS MOCLDY    36  26  67 W24G31    29.94S WCI  24
6HR MIN TEMP:  36; 6HR MAX TEMP:  41;

BELEN          CLOUDY    48  28  46 W9        29.99S
6HR MIN TEMP:  38; 6HR MAX TEMP:  50;

SOCORRO        CLOUDY    48  37  66 E5        29.99F
6HR MIN TEMP:  38; 6HR MAX TEMP:  48;


$$
NMZ524>526-539-540-190100-
SOUTHCENTRAL MOUNTAINS

CITY           SKY/WX    TMP DP  RH WIND       PRES   REMARKS
RUIDOSO        CLOUDY    39  25  56 W14       29.99F WCI  31

$$
NMZ527>531-190100-
NORTHEAST HIGHLANDS/NORTHEAST PLAINS

CITY           SKY/WX    TMP DP  RH WIND       PRES   REMARKS
LAS VEGAS      FAIR      38  22  52 NW13      29.87R WCI  30
6HR MIN TEMP:  36; 6HR MAX TEMP:  46;

RATON          FAIR      36  27  69 S3        29.84F
6HR MIN TEMP:  32; 6HR MAX TEMP:  41;

CLAYTON        FAIR      43  33  68 S8        29.81F
6HR MIN TEMP:  43; 6HR MAX TEMP:  54;


$$
NMZ532>537-190100-
EASTCENTRAL PLAINS

CITY           SKY/WX    TMP DP  RH WIND       PRES   REMARKS
TUCUMCARI      FAIR      53  31  42 W13       29.82F
6HR MIN TEMP:  53; 6HR MAX TEMP:  60;

CANNON AFB     FAIR      50  36  59 W17       29.89S
6HR MIN TEMP:  47; 6HR MAX TEMP:  54;

CLOVIS AIRPORT FAIR      50  36  57 SW16G24   29.89F

$$
NMZ028-029-538-190100-
SOUTHEAST PLAINS

CITY           SKY/WX    TMP DP  RH WIND       PRES   REMARKS
ROSWELL        FAIR      56  31  38 W16       29.92F
6HR MIN TEMP:  51; 6HR MAX TEMP:  59;

ARTESIA        FAIR      55  37  50 SW17      29.95S
CARLSBAD       FAIR      56  40  55 W14       29.96S
6HR MIN TEMP:  52; 6HR MAX TEMP:  62;

HOBBS          PTCLDY    55  37  50 SW12      29.97F


$$



USA.gov is the U.S. government's official web portal to all federal, state and local government web resources and services.